Location: Hillern
(53.0557°N, 9.8577°E)
Time: 23:33:58
(UTC+00:00)

Lacrosse 5 rocket - Pass Details

Date: 19 May 2025
Orbit: 419 x 515 km, 57.0° (Epoch: 21 June)

Event Time Altitude Azimuth Distance (km) Brightness Sun altitude
Rises 21:23:46 0° 289° (WNW) 2,478 5.4 -13.0°
Reaches altitude 10° 21:26:43 10° 264° (W) 1,575 3.9 -13.2°
Maximum altitude 21:28:35 14° 231° (SW) 1,340 3.2 -13.3°
Enters shadow 21:29:54 12° 207° (SSW) 1,444 3.1 -13.4°
